#timestamp,LO_Frequency,Hit,StdDev 
1509645615.0,286046996.9,N
1509645615.9,286046996.9,N
1509645635.8,286046999.4,N
1509645655.6,286047002.4,N
1509645675.4,286047002.4,N
1509645695.3,286047000.0,N
1509645715.1,286046999.5,N
1509645716.0,286046999.5,N
1509645735.8,286047001.5,N
1509645755.7,286047003.3,N
1509645775.5,286047004.2,N
1509645795.3,286047001.3,N
1509645815.2,286047005.2,N
1509645835.9,286047005.7,N
1509645855.7,286047005.9,N
1509645875.6,286047002.9,N
1509645895.4,286047005.0,N
1509645915.2,286047008.0,Y
1509645935.1,286047008.6,P
1509645936.0,286047008.6,N
1509645955.8,286047010.6,P
1509645975.7,286047011.1,Y
1509645995.5,286047005.0,P
1509646015.3,286047005.6,P
1509646035.2,286047003.5,P
1509646055.9,286047001.7,N
1509646075.7,286047001.0,N
1509646095.6,286046998.1,N
1509646115.4,286047000.6,N
1509646135.2,286047000.0,N
1509646155.1,286046998.2,N
1509646156.0,286046998.2,N
1509646175.8,286047000.6,N
1509646195.6,286047004.1,N
1509646215.5,286047002.1,N
1509646235.3,286047002.9,N
1509646255.1,286047005.3,N
1509646275.9,286047006.0,N
1509646295.7,286047007.1,N
1509646315.5,286047006.0,N
1509646335.4,286047004.8,N
1509646355.2,286047009.0,Y
1509646375.1,286047004.0,P
1509646376.0,286047004.0,P
1509646395.8,286047003.6,P
1509646415.6,286047001.5,Y
1509646435.5,286046998.2,P
1509646455.3,286047000.9,N
1509646475.1,286046998.4,N
1509646495.9,286046994.9,N
1509646515.7,286046995.4,N
1509646535.5,286046997.8,N
1509646555.4,286046995.4,N
1509646575.2,286046995.5,N
1509646595.0,286046997.9,N
1509646595.9,286046997.9,N
1509646615.8,286046995.1,N
1509646635.6,286046996.5,N
1509646655.4,286047000.3,N
1509646675.3,286047002.7,N
1509646695.1,286047000.9,N
1509646715.8,286047000.8,N
1509646735.7,286047000.3,N
1509646755.5,286047002.5,N
1509646775.3,286047004.2,N
1509646795.2,286047001.8,N
1509646815.9,286047003.8,N
1509646835.7,286047001.7,N
1509646855.6,286047002.6,N
1509646875.4,286046999.3,N
1509646895.2,286046998.6,N
1509646915.1,286047002.8,N
1509646916.0,286047002.8,N
1509646935.8,286047002.8,N
1509646955.6,286047000.0,N
1509646975.5,286047000.5,N
1509646995.3,286046998.2,N
1509647015.1,286046999.1,N
1509647035.9,286046996.8,N
1509647055.7,286046999.8,N
1509647075.6,286047000.5,N
1509647095.4,286046998.1,N
1509647115.2,286047000.6,N
1509647135.1,286046999.3,N
1509647136.0,286046999.3,N
1509647155.8,286046999.1,N
1509647175.6,286046997.0,N
1509647195.5,286047000.5,N
1509647215.3,286046997.3,N
1509647235.1,286046998.0,N
1509647255.9,286046995.8,N
1509647275.7,286046995.2,N
1509647295.5,286046992.4,Y
1509647315.4,286046995.9,P
1509647335.2,286046996.2,N
1509647355.0,286046993.9,P
1509647355.9,286046993.9,N
1509647375.8,286046992.8,Y
1509647395.6,286046995.8,P
1509647415.5,286046997.9,P
1509647435.3,286047000.6,N
1509647455.1,286047004.4,N
1509647475.9,286047000.5,N
1509647495.7,286047001.0,N
1509647515.5,286047001.6,N
1509647535.4,286047002.3,N
1509647555.2,286047003.9,N
1509647575.0,286047005.4,N
1509647575.9,286047005.4,N
1509647595.8,286047003.9,N
1509647615.6,286047002.1,N
1509647635.4,286047000.6,N
1509647655.3,286047000.6,N
1509647675.1,286047001.2,N
1509647676.0,286047001.2,N
1509647695.8,286046998.4,N
1509647715.7,286046999.2,N
1509647735.5,286046997.0,N
1509647755.3,286046997.6,N
1509647775.2,286046995.2,N
1509647795.9,286046997.4,N
1509647815.7,286047002.7,N
1509647835.6,286046998.5,N
1509647855.4,286047001.0,N
1509647875.2,286047001.8,N
1509647895.1,286047005.2,N
1509647896.0,286047005.2,N
1509647915.8,286047004.5,N
1509647935.6,286047003.2,N
1509647955.5,286047002.0,N
1509647975.3,286046997.1,N
1509647995.1,286046990.7,Y
1509648015.9,286046986.0,P
1509648035.7,286046986.4,N
1509648055.5,286046984.5,N
1509648075.4,286046979.3,Y
1509648095.2,286046988.8,P
1509648115.0,286046991.1,P
1509648116.0,286046991.1,P
1509648135.8,286046989.1,Y
1509648155.6,286046998.3,P
1509648175.5,286046998.4,N
1509648195.3,286046998.6,N
1509648215.1,286047001.2,N
1509648235.9,286046997.1,N
1509648255.7,286046993.7,N
1509648275.5,286046994.8,N
1509648295.4,286046990.3,N
1509648315.2,286046991.6,N
1509648335.0,286046989.7,N
1509648335.9,286046989.7,N
1509648355.8,286046986.9,Y
1509648375.6,286046993.8,P
1509648395.4,286046993.3,P
1509648415.3,286046992.0,P
1509648435.1,286046992.1,Y
1509648455.8,286047000.9,P
1509648475.7,286046998.2,N
1509648495.5,286046998.1,N
1509648515.3,286047002.1,N
1509648535.2,286047000.9,N
1509648555.0,286047000.4,N
1509648555.9,286047000.4,N
1509648575.8,286047000.5,N
1509648595.6,286046999.9,N
1509648615.4,286047000.1,N
1509648635.3,286046998.1,N
1509648655.1,286047003.3,N
1509648656.0,286047003.3,N
1509648675.8,286047004.9,N
1509648695.7,286047008.0,Y
1509648715.5,286047011.7,P
1509648735.3,286047012.8,N
1509648755.2,286047017.7,P
1509648775.9,286047019.5,Y
1509648795.7,286047009.4,P
1509648815.6,286047011.0,P
1509648835.4,286047016.4,P
1509648855.3,286047015.7,Y
1509648875.1,286047007.0,P
1509648876.0,286047007.0,N
1509648895.8,286047005.2,N
1509648915.7,286047006.5,N
1509648935.5,286047008.5,Y
1509648955.3,286047003.6,P
1509648975.2,286047005.4,N
1509648995.9,286047003.8,N
1509649015.7,286047001.4,N
1509649035.6,286046999.8,N
1509649055.4,286047000.7,N
1509649075.2,286046998.1,N
1509649095.1,286046999.8,N
1509649096.0,286046999.8,N
1509649115.8,286047002.4,N
1509649135.6,286047002.1,N
1509649155.5,286047002.6,N
1509649175.3,286047001.8,N
1509649195.1,286047000.3,N
